GW2905 Weather Reports


Display with metric or nautical units.
time (UTC)temp
F
wind
direction
speed
MPH
gust
MPH
rain 1hr
in
rain 24hr
in
rain mn
in
humidity
%
barometer
mb
20260904064558 55 197 0.0 3.0 0.00 0.19 0.19 81 1009.4
20260904063106 55 333 1.0 4.0 0.00 0.19 0.19 81 1009.5
20260904061558 54 0 0.0 2.0 0.00 0.19 0.19 82 1009.4
20260904060104 53 0 0.0 2.0 0.00 0.19 0.19 87 1009.4
20260904054558 53 0 0.0 2.0 0.00 0.19 0.19 88 1009.5
20260904053102 54 244 0.0 1.0 0.00 0.19 0.19 86 1009.5
20260904051609 55 221 0.0 2.0 0.00 0.19 0.19 85 1009.6
20260904044606 55 0 0.0 2.0 0.00 0.19 0.19 85 1009.7
20260904043103 55 0 0.0 0.0 0.00 0.19 0.19 86 1009.6
20260904041612 55 0 0.0 1.0 0.00 0.19 0.19 87 1009.8
20260904040112 55 0 0.0 2.0 0.00 0.19 0.19 87 1009.8
20260904034611 55 0 0.0 2.0 0.00 0.19 0.19 85 1009.6
20260904033104 55 0 0.0 2.0 0.00 0.19 0.19 85 1009.4
20260904031603 55 0 0.0 2.0 0.00 0.19 0.19 84 1009.2
20260904024609 55 0 0.0 1.0 0.00 0.19 0.19 85 1008.9
20260904023103 55 0 0.0 1.0 0.00 0.19 0.19 83 1008.9
20260904021606 56 51 0.0 2.0 0.00 0.19 0.19 82 1009.0
20260904020054 57 0 0.0 6.0 0.00 0.19 0.19 79 1008.8
20260904014638 57 198 1.0 6.0 0.00 0.19 0.19 79 1009.0
20260904013056 57 0 2.0 6.0 0.00 0.19 0.19 77 1008.9
20260904011626 57 0 0.0 3.0 0.00 0.19 0.19 78 1008.9
20260904010108 57 99 1.0 4.0 0.00 0.19 0.19 79 1009.0
20260904004604 56 51 1.0 4.0 0.00 0.19 0.19 81 1008.8
20260904003103 56 96 0.0 6.0 0.00 0.19 0.19 76 1009.0
20260904001555 57 115 2.0 8.0 0.01 0.19 0.19 75 1009.1
20260903234600 56 140 0.0 3.0 0.01 0.20 0.19 83 1009.0
20260903233114 55 0 0.0 5.0 0.01 0.20 0.19 83 1009.1
20260903231604 55 0 0.0 8.0 0.00 0.19 0.18 82 1009.2
20260903230059 56 110 2.0 10.0 0.00 0.19 0.18 81 1009.4
20260903224556 56 207 2.0 8.0 0.00 0.22 0.18 78 1009.6
20260903223113 55 0 2.0 8.0 0.01 0.22 0.18 80 1009.4
20260903221600 55 146 0.0 3.0 0.01 0.22 0.18 83 1009.4
20260903220127 55 214 1.0 8.0 0.01 0.22 0.18 83 1009.5
20260903214558 56 175 1.0 8.0 0.02 0.23 0.18 83 1009.5
20260903213101 55 221 1.0 7.0 0.01 0.22 0.17 88 1009.7
20260903211600 54 207 0.0 3.0 0.01 0.22 0.17 87 1009.6
20260903210111 54 230 0.0 6.0 0.01 0.22 0.17 88 1009.5
20260903204600 56 180 2.0 6.0 0.00 0.22 0.16 84 1009.3
20260903203109 58 87 3.0 11.0 0.00 0.22 0.16 79 1009.1
20260903201602 58 166 3.0 10.0 0.00 0.22 0.16 76 1009.3
20260903200058 59 119 5.0 14.0 0.00 0.22 0.16 75 1009.3
20260903194600 59 94 4.0 11.0 0.00 0.30 0.16 77 1009.1
20260903193100 59 107 1.0 10.0 0.00 0.30 0.16 79 1009.3
20260903191559 59 150 3.0 12.0 0.00 0.30 0.16 81 1009.3
20260903190107 57 170 3.0 8.0 0.00 0.30 0.16 83 1009.7
20260903184605 56 103 3.0 10.0 0.00 0.33 0.16 82 1009.6
20260903183103 57 180 4.0 10.0 0.00 0.33 0.16 83 1009.7
20260903181601 57 154 2.0 8.0 0.00 0.33 0.16 87 1009.4
20260903180059 56 0 1.0 8.0 0.00 0.33 0.16 87 1009.4
20260903174559 56 215 1.0 8.0 0.00 0.39 0.16 89 1009.4
20260903173101 56 158 2.0 8.0 0.00 0.39 0.16 91 1009.3
20260903171605 55 155 1.0 6.0 0.06 0.39 0.16 92 1009.4
20260903170117 55 159 1.0 6.0 0.07 0.39 0.16 94 1009.7
20260903164609 53 124 0.0 3.0 0.07 0.39 0.16 95 1009.7
20260903163056 52 0 1.0 4.0 0.08 0.39 0.16 94 1009.7
20260903161604 53 0 0.0 3.0 0.03 0.33 0.10 94 1009.8
20260903160107 53 0 0.0 7.0 0.02 0.32 0.09 94 1009.7
20260903154607 52 0 0.0 7.0 0.02 0.32 0.09 94 1009.6
20260903153104 52 0 1.0 11.0 0.01 0.31 0.08 94 1009.6
20260903151559 52 154 2.0 8.0 0.00 0.30 0.07 94 1009.6
20260903150113 52 0 1.0 11.0 0.00 0.30 0.07 94 1009.4
20260903144622 53 108 2.0 8.0 0.01 0.30 0.07 94 1009.4
20260903143058 53 273 1.0 6.0 0.01 0.30 0.07 94 1009.3
20260903141604 53 65 0.0 9.0 0.03 0.30 0.07 94 1009.1
20260903140100 53 110 1.0 10.0 0.05 0.30 0.07 94 1009.0
20260903134628 53 119 0.0 4.0 0.05 0.29 0.06 94 1008.9
20260903133112 53 114 0.0 8.0 0.06 0.29 0.06 93 1008.8
20260903131601 53 94 1.0 6.0 0.04 0.27 0.04 93 1008.7
20260903130104 53 0 0.0 8.0 0.02 0.25 0.02 92 1008.8
20260903124602 53 0 3.0 9.0 0.01 0.24 0.01 90 1008.8
20260903123059 54 110 1.0 7.0 0.00 0.23 0.00 89 1008.9
20260903121557 54 81 2.0 8.0 0.00 0.23 0.00 89 1008.7
20260903120118 53 0 0.0 6.0 0.00 0.23 0.00 90 1008.9
20260903114603 53 221 1.0 8.0 0.00 0.23 0.00 90 1008.8
20260903113059 53 82 2.0 10.0 0.00 0.23 0.00 90 1008.8
20260903111559 54 109 1.0 8.0 0.00 0.23 0.00 91 1008.8
20260903110106 54 0 2.0 7.0 0.00 0.23 0.00 91 1008.8
20260903104619 54 140 2.0 7.0 0.00 0.23 0.00 91 1008.9
20260903103100 54 103 1.0 7.0 0.00 0.23 0.00 92 1009.0
20260903101603 54 261 1.0 7.0 0.00 0.23 0.00 92 1009.0
20260903100106 53 0 1.0 7.0 0.00 0.23 0.00 92 1008.7
20260903094622 53 127 0.0 4.0 0.00 0.23 0.00 93 1008.8
20260903093058 54 87 0.0 7.0 0.00 0.23 0.00 93 1008.7
20260903091615 54 222 0.0 3.0 0.00 0.23 0.00 93 1008.7
20260903090058 54 0 0.0 8.0 0.00 0.23 0.00 93 1009.0
20260903084602 54 0 0.0 8.0 0.00 0.23 0.00 93 1009.1
20260903083103 54 0 0.0 6.0 0.00 0.23 0.00 93 1009.0
20260903081556 54 0 0.0 7.0 0.00 0.23 0.00 93 1009.1
20260903080059 54 265 0.0 7.0 0.00 0.23 0.00 93 1009.1
20260903074603 54 0 1.0 8.0 0.00 0.23 0.00 93 1009.2
20260903073100 54 0 0.0 9.0 0.00 0.23 0.00 93 1009.1
20260903071614 54 0 0.0 7.0 0.00 0.23 0.00 93 1009.0